Regional Weather Roundup
Issued by NWS

Home | Current Version | Previous Version | Graphics & Text | Print | Product List | Glossary On
Versions: 1 2 3 4 5 6 7 8 9 10 11 12 13 14 15 16 17 18 19 20 21 22 23 24 25 26 27 28 29 30 31 32 33 34 35 36 37 38 39 40 41 42 43 44 45 46 47 48 49 50
000
ASUS45 KBOU 221107
RWRCO

WEATHER ROUNDUP FOR COLORADO
NATIONAL WEATHER SERVICE DENVER/BOULDER CO
500 AM MDT TUE JUL 22 2014

NOTE: "FAIR" INDICATES FEW OR NO CLOUDS BELOW 12000 FEET WITH NO
SIGNIFICANT WEATHER AND/OR OBSTRUCTIONS TO VISIBILITY.

COZ001>005-013-030-031-221200-
...NORTHWEST COLORADO...

CITY           SKY/WX    TMP DP  RH WIND       PRES   REMARKS
CRAIG          CLEAR     39  39 100 CALM      30.35R
HAYDEN         CLEAR     54  36  50 E14       30.36R
MEEKER         CLEAR     54  34  46 SE6       30.36R
MOUNT WERNER   NOT AVBL
STEAMBOAT SPGS CLEAR     48  39  70 CALM      30.40R
WALDEN         PTCLDY    41  32  70 SE5       30.47R
$$

COZ006>008-011-221200-
...WEST CENTRAL VALLEYS...

CITY           SKY/WX    TMP DP  RH WIND       PRES   REMARKS
GRAND JUNCTION CLEAR     65  29  25 E9        30.22R
MONTROSE       CLEAR     62  33  33 E6        30.32R
EAGLE          CLEAR     52  39  62 SE3       30.43R
RIFLE          CLEAR     56  31  38 E3        30.31R
DELTA          CLEAR     61  31  32 NE5       30.28R
NUCLA          CLEAR     59  32  36 CALM      30.35S
$$

COZ017>023-064>068-221200-
...SOUTHWEST COLORADO...

CITY           SKY/WX    TMP DP  RH WIND       PRES   REMARKS
DURANGO        CLEAR     55  34  45 CALM      30.35R
CORTEZ         CLEAR     48  36  63 NE3       30.31R
PAGOSA SPRINGS CLEAR     55  41  59 CALM      30.44R
TELLURIDE      CLEAR     54  30  40 SE5       30.57R
WOLF CREEK PAS NOT AVBL
$$

COZ009-010-012-014-032>034-037-058>063-221200-
...CENTRAL COLORADO...

CITY           SKY/WX    TMP DP  RH WIND       PRES   REMARKS
ASPEN          CLEAR     52  33  48 SW7       30.48R
BUENA VISTA    CLEAR     54  34  47 NW12      30.49S
COPPER MTN     CLEAR     55  27  33 W7        30.80S
BERTHOUD PASS  FAIR      46  34  61 W9        30.85S
COTTONWOOD PAS CLEAR     64  23  20 W13G18    30.62S
GUNNISON       CLEAR     45  36  70 CALM      30.54R
KREMMLING      CLEAR     43  37  81 CALM      30.48R
LEADVILLE      CLEAR     43  32  65 CALM      30.63R
MONARCH PASS   CLEAR     50  28  43 W14       30.90R
SALIDA         CLEAR     58  37  44 NW7       30.54R
SUNLIGHT       CLEAR     59  19  21 CALM      30.71R
WILKERSON PASS CLEAR     55  27  33 W8        30.76R
$$

COZ069>075-221200-
...SAN LUIS VALLEY/SANGRE DE CRISTO MOUNTAINS...

CITY           SKY/WX    TMP DP  RH WIND       PRES   REMARKS
ALAMOSA        PTCLDY    49  46  90 NW3       30.45R
LA VETA PASS   CLEAR     55  37  50 SW3       30.63S
SAGUACHE       CLEAR     52  37  58 NW12      30.47R
$$

COZ035-036-038>040-221200-
...NORTHERN COLORADO FRONT RANGE...

CITY           SKY/WX    TMP DP  RH WIND       PRES   REMARKS
DENVER INTL AP PTCLDY    67  44  43 SW8       30.22R
DMNS CITY PARK   N/A     67  45  45 S6        30.23R
AURORA         PTCLDY    64  46  51 S13       30.25R
FRONT RANGE AP NOT AVBL
ERIE MUNI ARPT CLEAR     60  47  62 NE3       30.20R
BOULDER MUN AP CLEAR     63  43  48 N5        30.21R
CENTENNIAL     CLEAR     64  44  48 SE6       30.26R
BROOMFIELD     CLEAR     72  39  30 CALM      30.24R
FORT COLLINS   CLEAR     64  46  52 N8        30.22R
LONGMONT       CLEAR     63  48  58 E5        30.23R
$$

COZ041-046-047-076>085-087-088-221200-
...PIKES PEAK/PALMER DIVIDE AND SOUTHERN FOOTHILLS...

CITY           SKY/WX    TMP DP  RH WIND       PRES   REMARKS
COLO. SPRINGS  CLEAR     60  50  69 N9        30.31S
A. F. ACADEMY  CLEAR     55  45  69 N9        30.34S
ELLICOTT       CLEAR     57  52  83 N7        30.29R
FALCON         CLEAR     57  49  75 W10       30.36S
FORT CARSON    CLEAR     60  47  61 N13       30.27S
LIMON          CLEAR     56  53  90 N3        30.23S
MONUMENT HILL  CLEAR     57  45  62 SW9       30.36R
TRINIDAD       CLEAR     66  51  58 W8        30.26R
$$

COZ042>045-048>051-090-091-221200-
...NORTHEAST COLORADO...

CITY           SKY/WX    TMP DP  RH WIND       PRES   REMARKS
GREELEY ARPT   PTCLDY    61  48  63 CALM      30.20R
AKRON          PTCLDY    70  54  56 S13G23    30.16F
BURLINGTON     CLEAR     67  57  70 N8        30.15R
WRAY             N/A     77  55  46 SW13G18   30.05S
STERLING       PTCLDY    72  54  53 W8        30.11R
HOLYOKE        PTCLDY    73  59  60 N17G23    30.11R
FORT MORGAN    PTCLDY    66  50  57 S3        30.16S
$$

COZ086-089-092>099-221200-
...SOUTHEAST COLORADO...

CITY           SKY/WX    TMP DP  RH WIND       PRES   REMARKS
PUEBLO         CLEAR     61  54  77 W3        30.18R
LA JUNTA       CLEAR     68  58  70 W6        30.12R
LAMAR          CLEAR     69  60  73 W3        30.07S
SPRINGFIELD      N/A     66  62  87 SW10      30.12F
$$


USA.gov is the U.S. government's official web portal to all federal, state and local government web resources and services.